| time (UTC) | temp F | wind direction | speed knots | gust knots | rain 1hr in | rain 24hr in | rain mn in | humidity % | barometer mb |
| 20260504214551 | 43 | 0 | 0.9 | 6.1 | 0.00 | 0.00 | 0.00 | 56 | 1015.8 |
| 20260504213102 | 46 | 46 | 3.5 | 8.7 | 0.00 | 0.00 | 0.00 | 51 | 1015.6 |
| 20260504211553 | 48 | 148 | 4.3 | 8.7 | 0.00 | 0.00 | 0.00 | 45 | 1015.8 |
| 20260504210057 | 50 | 311 | 0.0 | 3.5 | 0.00 | 0.00 | 0.00 | 43 | 1015.8 |
| 20260504204554 | 50 | 124 | 0.9 | 9.6 | 0.00 | 0.00 | 0.00 | 37 | 1015.9 |
| 20260504203106 | 48 | 104 | 0.9 | 5.2 | 0.00 | 0.00 | 0.00 | 38 | 1016.0 |
| 20260504201557 | 46 | 205 | 0.9 | 7.0 | 0.00 | 0.00 | 0.00 | 52 | 1016.2 |
| 20260504194552 | 49 | 240 | 0.9 | 12.2 | 0.00 | 0.00 | 0.00 | 44 | 1016.5 |
| 20260504193054 | 53 | 174 | 4.3 | 12.2 | 0.00 | 0.00 | 0.00 | 38 | 1016.5 |
| 20260504191557 | 52 | 219 | 4.3 | 13.0 | 0.00 | 0.00 | 0.00 | 37 | 1016.5 |
| 20260504190053 | 51 | 255 | 2.6 | 13.0 | 0.00 | 0.00 | 0.00 | 39 | 1016.4 |
| 20260504184558 | 51 | 192 | 4.3 | 9.6 | 0.00 | 0.00 | 0.00 | 39 | 1016.8 |
| 20260504183053 | 50 | 25 | 1.7 | 6.1 | 0.00 | 0.00 | 0.00 | 41 | 1016.8 |
| 20260504181549 | 48 | 124 | 1.7 | 6.1 | 0.00 | 0.00 | 0.00 | 46 | 1017.0 |
| 20260504180051 | 46 | 224 | 0.9 | 6.1 | 0.00 | 0.00 | 0.00 | 50 | 1017.4 |
| 20260504174554 | 45 | 115 | 0.9 | 8.7 | 0.00 | 0.00 | 0.00 | 50 | 1017.5 |
| 20260504173050 | 44 | 131 | 0.9 | 11.3 | 0.00 | 0.00 | 0.00 | 50 | 1017.4 |
| 20260504171554 | 44 | 288 | 2.6 | 8.7 | 0.00 | 0.00 | 0.00 | 50 | 1017.1 |
| 20260504081553 | 39 | 268 | 0.9 | 2.6 | 0.00 | 0.00 | 0.00 | 38 | 1018.5 |
| 20260504044603 | 40 | 283 | 0.0 | 2.6 | 0.00 | 0.00 | 0.00 | 41 | 1020.2 |
| 20260504043055 | 40 | 281 | 0.0 | 3.5 | 0.00 | 0.00 | 0.00 | 42 | 1020.2 |
| 20260504041554 | 39 | 269 | 0.0 | 1.7 | 0.00 | 0.00 | 0.00 | 43 | 1020.2 |
| 20260504040107 | 40 | 280 | 0.0 | 0.9 | 0.00 | 0.00 | 0.00 | 43 | 1020.3 |
| 20260504034615 | 40 | 284 | 0.0 | 1.7 | 0.00 | 0.00 | 0.00 | 44 | 1020.3 |
| 20260504033055 | 41 | 280 | 0.0 | 1.7 | 0.00 | 0.00 | 0.00 | 44 | 1020.2 |
| 20260504031555 | 40 | 270 | 0.0 | 0.9 | 0.00 | 0.00 | 0.00 | 46 | 1020.4 |
| 20260504030120 | 40 | 0 | 0.0 | 0.9 | 0.00 | 0.00 | 0.00 | 47 | 1020.2 |
| 20260504024559 | 41 | 243 | 0.0 | 0.9 | 0.00 | 0.00 | 0.00 | 47 | 1020.2 |
| 20260504023054 | 43 | 0 | 0.9 | 5.2 | 0.00 | 0.00 | 0.00 | 43 | 1020.2 |
| 20260504021557 | 43 | 240 | 0.0 | 1.7 | 0.00 | 0.00 | 0.00 | 45 | 1020.2 |
| 20260504020107 | 43 | 203 | 0.0 | 4.3 | 0.00 | 0.00 | 0.00 | 44 | 1020.1 |
| 20260504014600 | 43 | 207 | 0.0 | 1.7 | 0.00 | 0.00 | 0.00 | 45 | 1020.3 |
| 20260504013059 | 44 | 219 | 0.0 | 0.9 | 0.00 | 0.00 | 0.00 | 45 | 1020.1 |
| 20260504011554 | 45 | 0 | 0.0 | 0.9 | 0.00 | 0.00 | 0.00 | 42 | 1020.1 |
| 20260504010052 | 46 | 112 | 0.0 | 0.9 | 0.00 | 0.00 | 0.00 | 42 | 1020.2 |
| 20260504004557 | 46 | 0 | 0.9 | 3.5 | 0.00 | 0.00 | 0.00 | 42 | 1020.3 |
| 20260504003056 | 47 | 10 | 0.0 | 4.3 | 0.00 | 0.00 | 0.00 | 41 | 1020.5 |
| 20260504001605 | 47 | 0 | 0.9 | 4.3 | 0.00 | 0.00 | 0.00 | 43 | 1020.9 |
| 20260504000056 | 47 | 312 | 0.9 | 2.6 | 0.00 | 0.00 | 0.00 | 41 | 1020.9 |
| 20260503234552 | 47 | 121 | 0.0 | 13.0 | 0.00 | 0.00 | 0.00 | 42 | 1020.7 |
| 20260503233059 | 48 | 239 | 5.2 | 15.6 | 0.00 | 0.00 | 0.00 | 38 | 1021.4 |
| 20260503231554 | 51 | 116 | 3.5 | 11.3 | 0.00 | 0.00 | 0.00 | 33 | 1021.1 |
| 20260503230054 | 51 | 257 | 3.5 | 12.2 | 0.00 | 0.00 | 0.00 | 31 | 1020.9 |
| 20260503224557 | 54 | 200 | 4.3 | 9.6 | 0.00 | 0.00 | 0.00 | 26 | 1020.6 |
| 20260503223059 | 53 | 132 | 0.9 | 5.2 | 0.00 | 0.00 | 0.00 | 31 | 1020.3 |
| 20260503221603 | 51 | 82 | 1.7 | 5.2 | 0.00 | 0.00 | 0.00 | 38 | 1020.4 |
| 20260503220055 | 51 | 64 | 2.6 | 6.1 | 0.00 | 0.00 | 0.00 | 36 | 1020.9 |